Other Public Products
Issued by NWS Grand Forks, ND

Home | Current Version | Previous Version | Graphics & Text | Print | Product List | Glossary On
Versions: 1 2 3 4 5 6 7 8 9 10 11 12 13 14 15 16 17 18 19 20 21 22 23 24 25 26 27 28 29 30 31 32 33 34 35 36 37 38 39 40 41 42 43 44 45 46 47 48 49 50
000
FPUS83 KFGF 061331
OPUFGF
PRAIRIE TO PINES WEATHER ROUNDUP
NATIONAL WEATHER SERVICE EASTERN NORTH DAKOTA/GRAND FORKS ND
700 AM CST SAT FEB 06 2016

 **SATELLITE DATA USED TO AUGMENT SKY COVER AT AUTOMATED STATIONS**
 *****  WEATHER ACROSS EASTERN NORTH DAKOTA  *****

CITY           SKY/WX    TMP DP  RH WIND       PRES   REMARKS
GRAND FORKS    CLOUDY    21  16  81 S12       29.85F WCI   9
GRAND FORKS AF CLOUDY    20  17  87 S9        29.83F WCI   9
GRAND CITY NWS   N/A     21 N/A N/A S13         N/A  WCI   9
BUXTON           N/A     21  20  98 SE12        N/A  WCI   9
DEVILS LAKE    CLOUDY    29  24  82 S8        29.78F WCI  21
FARGO          CLOUDY    23  18  81 S12       29.91F WCI  12
WAHPETON ARPT  CLOUDY    21  19  93 S7        29.94F WCI  13
$$

 *****  WEATHER ACROSS CENTRAL AND WESTERN NORTH DAKOTA  *****

CITY           SKY/WX    TMP DP  RH WIND       PRES   REMARKS
JAMESTOWN      CLOUDY    32  23  69 SW14      29.83F WCI  22
BISMARCK       MOCLDY    34  24  67 SW7       29.86F
MINOT          CLOUDY    39  24  55 SW15G21   29.73F
MINOT AFB      CLOUDY    38  28  68 W16G24    29.72F
GARRISON         N/A     31  24  75 SW6       29.78F
WILLISTON      CLOUDY    36  27  69 S8        29.77F
DICKINSON      MOCLDY    33  21  61 W13       29.83F WCI  24
HETTINGER      MOCLDY    30  20  66 W10       29.91F WCI  21
$$

 *****  OTHER OBSERVATIONS NORTHEAST NORTH DAKOTA  *****

CITY           SKY/WX    TMP DP  RH WIND       PRES   REMARKS
WALHALLA       FAIR      25  25 100 SE6       29.79F WCI  18
LANGDON        FAIR      25  21  86 S13       29.76F WCI  13
CAVALIER       FAIR      23  19  86 S9        29.81F WCI  13
GRAFTON        FAIR      21  21 100 S12       29.84F WCI   9
CANDO          CLOUDY    27  25  93 SW8       29.78F WCI  18
FORT TOTTEN      N/A     29  23  79 S6        29.95S WCI  23
ROLLA          CLOUDY    27  25  93 SW12      29.72F WCI  16
RUGBY          FAIR      28  25  86 SW10      29.74F WCI  19
 ***** THE ABOVE OBSERVATIONS ARE NON NWS ARE NOT QUALITY
        CONTROLLED AND MAY MIS-REPORT RAIN FOR SNOW...
$$

 *****  OTHER OBSERVATIONS SOUTHEAST NORTH DAKOTA *****

CITY           SKY/WX    TMP DP  RH WIND       PRES   REMARKS
COOPERSTOWN    NOT AVBL
VALLEY CITY    CLOUDY    27  27 100 SW12      29.86F WCI  16
OAKES          CLOUDY    25  23  93 S13       29.90F WCI  13
GWINNER          N/A     28  25  86 SW17      29.91F WCI  16
SHEYENNE NWR     N/A     26  22  84 SW10      29.95S WCI  16
BUFFALO          N/A     25  20  80 SW12        N/A  WCI  15
WYNDMERE       NOT AVBL
 ***** THE ABOVE OBSERVATIONS ARE NON NWS ARE NOT QUALITY
       CONTROLLED AND MAY MIS-REPORT RAIN FOR SNOW...
$$

  *****  WEATHER ACROSS NORTHERN MINNESOTA  *****

CITY           SKY/WX    TMP DP  RH WIND       PRES   REMARKS
FLAG ISLAND    CLOUDY    18  16  93 SE6       29.89F WCI   9
WARROAD        MOCLDY    19  16  86 SE3       29.88F
ROSEAU         CLOUDY    19  16  86 S8        29.87F WCI   9
HALLOCK        CLOUDY    21  19  93 S12       29.83F WCI   9
THF RVR FALLS  CLOUDY    21  18  86 S8        29.87F WCI  12
HALSTAD          N/A     21  18  85 S14         N/A  WCI   8
FOSSTON        CLOUDY    19  18  93 S10       29.88F WCI   8
BAUDETTE       CLOUDY    18  14  84 SE6       29.90F WCI  10
WASKISH        CLOUDY    21  18  86 S3        29.91F
CROOKSTON      CLOUDY    23  19  86 S14       29.88F WCI  11
$$
  *****  WEATHER ACROSS CENTRAL AND WEST MINNESOTA  *****

CITY           SKY/WX    TMP DP  RH WIND       PRES   REMARKS
BEMIDJI        CLOUDY    20  19  94 S5        29.91F WCI  14
PARK RAPIDS    CLOUDY    21  18  88 S7        29.94F WCI  12
WADENA         CLOUDY    19  19 100 S6        29.96F WCI  11
DETROIT LAKES  CLOUDY    21  21 100 SE8       29.92F WCI  12
MOORHEAD       CLOUDY    21  18  86 S13       29.92F WCI   9
FERGUS FALLS   CLOUDY    21  19  93 S10       29.98F WCI  10
ELBOW LAKE     FAIR      19  18  96 S12       29.97F WCI   7
MORRIS MN      CLOUDY    19  19 100 SE9       29.98F WCI   9
STAPLES        CLOUDY    21  21 100 S7        29.98F WCI  13
WHEATON        CLOUDY    28  25  86 S13       29.97F WCI  18
$$
  *****  WEATHER ELSEWHERE ACROSS MINNESOTA  *****

CITY           SKY/WX    TMP DP  RH WIND       PRES   REMARKS
DULUTH         CLOUDY    19  15  84 W10       30.01F WCI   7
INTRNTL FALLS  CLOUDY    17  15  92 CALM      29.95F FOG
ELY            CLOUDY    12  10  92 CALM      29.97F FOG
CLOQUET        CLOUDY    19  18  93 S7        30.01F WCI  10
BRAINERD       CLOUDY    21  20  96 S9        30.01F FOG     WCI  11
HIBBING        CLOUDY    13  12  96 CALM      29.98F
ALEXANDRIA     CLOUDY    22  19  89 S14       30.00F WCI   9
SAINT CLOUD    CLOUDY    22  21  96 S7        30.07F WCI  13
MINNEAPOLIS    CLOUDY    26  22  84 S7        30.12F WCI  18
$$

  *****  WEATHER ACROSS SOUTH DAKOTA  *****

CITY           SKY/WX    TMP DP  RH WIND       PRES   REMARKS
SIOUX FALLS    CLOUDY    19  16  88 S6        30.13S WCI  11
BROOKINGS      CLOUDY    20  18  92 S9        30.06F WCI   9
WATERTOWN      CLOUDY    20  16  84 S6        30.00F WCI  12
HURON          PTCLDY    23  19  85 S12       30.04F WCI  12
SISSETON         N/A     31  23  72 W18       29.94F WCI  19
ABERDEEN       CLEAR     24  20  84 S12       29.97F WCI  13
MITCHELL       CLEAR     26  21  81 SW10      30.09F WCI  16
PIERRE         PTCLDY    29  20  69 SW18      30.00F WCI  16
MOBRIDGE       PTCLDY    29  22  75 SE9       29.91F WCI  20
RAPID CITY     MOCLDY    26  17  68 CALM      30.02S
$$

  *****  SOME WEATHER IN NEARBY STATES *****

CITY           SKY/WX    TMP DP  RH WIND       PRES   REMARKS
GLASGOW MT     CLOUDY    38  27  64 S9        29.78F
GREAT FALLS MT PTCLDY    39  20  46 SW16      29.87F
CHEYENNE WY    PTCLDY    30  14  51 NW20G30   30.13F WCI  17
SCOTTSBLUFF NE CLEAR     23  15  71 NW10      30.16F WCI  12
OMAHA NE       FOG       21  21 100 SE6       30.25S VSB 1/2 WCI  13
DES MOINES IA  CLOUDY    28  24  85 W5        30.24S FOG     WCI  23
DAVENPORT IA   CLEAR     27  21  78 SW7       30.26S WCI  19
CHICAGO IL     PTCLDY    25  21  85 SW6       30.26S WCI  18
EAU CLAIRE WI  CLOUDY    26  20  77 W7        30.13S WCI  18
LA CROSSE WI   CLOUDY    28  23  81 SW7       30.18F WCI  21
$$

  *****  SOME NATIONAL WEATHER *****

CITY           SKY/WX    TMP DP  RH WIND       PRES   REMARKS
LA GUARDIA NY  CLOUDY    34  18  52 W9        30.42R
RALEIGH NC     MOCLDY    29  23  78 CALM      30.45S
ATLANTA GA     MOCLDY    33  20  58 NE12      30.37R WCI  24
NEW ORLEANS LA MOCLDY    38  31  76 E6        30.34F
OKLAHOMA CITY  MOCLDY    37  30  75 N16       30.32R
ALBUQUERQUE NM CLEAR     27  12  53 N10       30.47S WCI  17
SALT LAKE CITY PTCLDY    23  18  81 SE14      30.51F WCI  11
LOS ANGELES CA CLEAR     53  26  35 E3        30.25F
BOISE ID       MOCLDY    33  27  78 SE12      30.41F WCI  24
SEATTLE WA     CLOUDY    44  39  82 S10       30.38R
$$

*** WEATHER ACROSS MANITOBA...SASKATCHEWAN AND ONTARIO ***
                ***ONTARIO***

CITY           SKY/WX    TMP DP  RH WIND       PRES   REMARKS
GERALDTON      FLURRIES   5   1  85 N9G17     29.96R WCI  -9
THUNDER BAY    CLOUDY    19  14  79 W5        30.02R WCI  13
SIOUX LOOKOUT  FLURRIES   9   5  85 VRB3      29.96S
TORONTO        PTCLDY    28  25  86 W7        30.19R WCI  21
BIG TROUT LK   CLEAR    -38 -45  67 CALM      30.10F
PICKLE LAKE    PTCLDY   -13 -18  77 NE7       29.99R WCI -29
DRYDEN         MOCLDY    10   9  92 E2        29.93S
KENORA         LGT SNOW  14  12  92 SE7       29.90F WCI   4
$$
                *** MANITOBA***

CITY           SKY/WX    TMP DP  RH WIND       PRES   REMARKS
BRANDON        CLOUDY    21  19  93 SE6       29.72F WCI  14
DAUPHIN        CLOUDY    21  18  86 SE9       29.69F WCI  11
ISLAND LAKE    NOT AVBL
PILOT MOUND      N/A     21  19  93 S10         N/A  WCI  10
THE PAS        FLURRIES   9   5  85 SE15G22   29.70F WCI  -8
THOMPSON       CRYSTALS -17 -24  70 E3        29.96F
WINNIPEG       MOCLDY    19  16  86 SE12      29.85F WCI   7
LYNN LAKE      FLURRIES -11 -15  84 SE15G21   29.73F WCI -34
CHURCHILL      CLEAR    -35 -42  67 NE5       30.17F WCI -50
$$
                ***SASKATCHEWAN***

CITY           SKY/WX    TMP DP  RH WIND       PRES   REMARKS
ESTEVAN        CLOUDY    34  27  75 SW15      29.67F WCI  24
KINDERSLEY     CLOUDY    39  28  65 SW31G37   29.45F
LLOYDMINSTER   CLOUDY    34  27  75 W14       29.38F WCI  24
PRINCE ALBERT  CLOUDY    19  18  93 E10       29.44F WCI   8
REGINA         MOCLDY    36  28  75 SW15      29.60S
YORKTON        MOCLDY    23  21  93 S10       29.57F WCI  12
N. BATTLEFORD  PTCLDY    32  25  74 VRB2      29.43F   C1F1C2F2C3F3C4F4C5F5C6F6C7F7C8F8C9F9CaFaCbFbCcFcCdFdCe!


USA.gov is the U.S. government's official web portal to all federal, state and local government web resources and services.